Change the Weather History Date:

Sunday, March 24, 2013

  Actual Average Record
Temperature  
Mean Temperature 44 °F 56 °F  
Max Temperature 47 °F 69 °F 84 °F (2007)
Min Temperature 40 °F 44 °F 28 °F (2004)
Degree Days  
Heating Degree Days 21 9  
Month to date heating degree days 415 290  
Since 1 July heating degree days 2489 2520  
Cooling Degree Days 0 0  
Month to date cooling degree days 1 0  
Year to date cooling degree days 5 3  
Moisture  
Dew Point 42 °F    
Average Humidity 95    
Maximum Humidity 100    
Minimum Humidity 89    
Precipitation  
Precipitation 0.72 in 0.09 in 0.72 in (2013)
Month to date precipitation 1.55 2.54  
Year to date precipitation 7.12 8.41  
Sea Level Pressure  
Sea Level Pressure 29.62 in    
Wind  
Wind Speed 8 mph (NE)    
Max Wind Speed 18 mph    
Max Gust Speed 24 mph    
Visibility 4 miles    
Events Rain    
T = Trace of Precipitation, MM = Missing Value Source: NWS Daily Summary

Daily Weather History Graph

Daily Weather History Graph

Search for Another Location

Airport or City:

Trip Planner

Search our weather history database for the weather conditions in past years. The results will help you decide how hot, cold, wet, or windy it might be!

Date:

Astronomy

Mar. 24, 2013 Rise Set
Actual Time 7:14 AM EDT 7:31 PM EDT
Civil Twilight 6:48 AM EDT 7:56 PM EDT
Nautical Twilight 6:19 AM EDT 8:25 PM EDT
Astronomical Twilight 5:49 AM EDT 8:55 PM EDT
Moon 5:02 PM EDT (3/24) 5:17 AM EDT (3/24)
Length of Visible Light 13h 07m
Length of Day
12h 17m
Waxing Gibbous, 91% of the Moon is Illuminated
Mar 24
Waxing Gibbous
Mar 27
Full
Apr 3
Last Quarter
Apr 10
New
Apr 18
First Quarter

Hourly Weather History & Observations

Time (EDT) Temp. Windchill Dew Point Humidity Pressure Visibility Wind Dir Wind Speed Gust Speed Precip Events Conditions
12:54 AM 43.0 °F - 39.9 °F 89% 29.91 in 9.0 mi Calm Calm - N/A   Clear
1:54 AM 42.1 °F - 39.9 °F 92% 29.88 in 8.0 mi Calm Calm - N/A   Clear
2:54 AM 43.0 °F - 41.0 °F 93% 29.90 in 8.0 mi Calm Calm - N/A   Scattered Clouds
3:54 AM 45.0 °F 41.8 °F 41.0 °F 86% 29.86 in 9.0 mi NE 5.8 mph - N/A   Overcast
4:54 AM 45.0 °F 41.2 °F 41.0 °F 86% 29.84 in 8.0 mi NE 6.9 mph - 0.00 in Rain Light Rain
5:54 AM 44.1 °F 39.0 °F 41.0 °F 89% 29.80 in 4.0 mi ENE 9.2 mph - 0.07 in Rain Rain
6:54 AM 44.1 °F 38.1 °F 41.0 °F 89% 29.79 in 5.0 mi ENE 11.5 mph - 0.12 in Rain Light Rain
8:08 AM 42.8 °F 37.0 °F 41.0 °F 93% 29.79 in 1.8 mi ENE 10.4 mph - 0.06 in Rain Heavy Rain
8:24 AM 42.8 °F 35.8 °F 41.0 °F 93% 29.78 in 2.5 mi ENE 13.8 mph 19.6 mph 0.10 in Rain Rain
8:54 AM 43.0 °F 37.2 °F 41.0 °F 93% 29.78 in 2.0 mi East 10.4 mph 19.6 mph 0.17 in Rain Rain
9:18 AM 42.8 °F 35.1 °F 41.0 °F 93% 29.69 in 2.5 mi East 16.1 mph 24.2 mph 0.04 in Rain Light Rain
9:25 AM 42.8 °F 36.6 °F 41.0 °F 93% 29.70 in 3.0 mi East 11.5 mph 24.2 mph 0.05 in Rain Light Rain
9:54 AM 44.1 °F 36.8 °F 42.1 °F 93% 29.66 in 5.0 mi East 16.1 mph 23.0 mph 0.05 in   Overcast
10:54 AM 45.0 °F 40.1 °F 43.0 °F 93% 29.61 in 6.0 mi East 9.2 mph - N/A   Overcast
11:54 AM 46.0 °F 39.9 °F 44.1 °F 93% 29.61 in 5.0 mi NNE 13.8 mph - 0.02 in   Overcast
12:26 PM 46.4 °F 41.9 °F 44.6 °F 93% 29.59 in 5.0 mi NE 9.2 mph - N/A   Overcast
12:50 PM 46.4 °F 41.5 °F 44.6 °F 93% 29.58 in 2.5 mi NE 10.4 mph - 0.01 in Rain Light Rain
12:54 PM 46.0 °F 40.6 °F 44.1 °F 93% 29.59 in 3.0 mi NE 11.5 mph 18.4 mph 0.01 in Rain Light Rain
1:13 PM 46.4 °F 40.4 °F 44.6 °F 93% 29.57 in 1.8 mi ENE 13.8 mph - 0.02 in Rain Light Rain
1:21 PM 46.4 °F 42.4 °F 44.6 °F 93% 29.55 in 1.2 mi ENE 8.1 mph - 0.03 in Rain Rain
1:35 PM 46.4 °F 41.9 °F 44.6 °F 93% 29.54 in 2.0 mi ENE 9.2 mph - 0.04 in Rain Light Rain
1:54 PM 46.9 °F - 45.0 °F 93% 29.55 in 3.0 mi NE 6.9 mph - 0.04 in   Overcast
2:10 PM 46.4 °F 42.9 °F 44.6 °F 93% 29.53 in 2.0 mi NE 6.9 mph - 0.01 in Rain Light Rain
2:13 PM 46.4 °F 42.4 °F 44.6 °F 93% 29.53 in 1.5 mi NNE 8.1 mph - 0.02 in Rain Light Rain
2:23 PM 46.4 °F 42.9 °F 44.6 °F 93% 29.53 in 1.8 mi NNE 6.9 mph - 0.03 in Rain Light Rain
2:41 PM 46.4 °F 41.9 °F 46.4 °F 100% 29.52 in 1.2 mi North 9.2 mph - 0.05 in Rain Light Rain
2:54 PM 46.0 °F 41.9 °F 45.0 °F 96% 29.52 in 1.5 mi North 8.1 mph - 0.06 in Rain Light Rain
3:01 PM 46.4 °F 42.9 °F 44.6 °F 93% 29.51 in 2.0 mi NNE 6.9 mph - 0.00 in Rain Light Rain
3:15 PM 46.4 °F 41.9 °F 44.6 °F 93% 29.50 in 1.8 mi NNE 9.2 mph - 0.01 in Rain Light Rain
3:31 PM 46.4 °F 41.1 °F 44.6 °F 93% 29.51 in 1.5 mi North 11.5 mph - 0.01 in   Overcast
3:41 PM 46.4 °F 40.7 °F 44.6 °F 93% 29.53 in 2.0 mi NW 12.7 mph - 0.02 in Rain Light Rain
3:51 PM 44.6 °F 39.2 °F 44.6 °F 100% 29.52 in 1.5 mi North 10.4 mph - 0.02 in Rain Light Rain
3:54 PM 45.0 °F 39.7 °F 44.1 °F 97% 29.52 in 1.5 mi North 10.4 mph - 0.03 in Rain Light Rain
4:09 PM 44.6 °F 39.7 °F 44.6 °F 100% 29.51 in 1.8 mi North 9.2 mph - 0.00 in Rain Light Rain
4:16 PM 44.6 °F 39.2 °F 44.6 °F 100% 29.51 in 2.0 mi North 10.4 mph - 0.01 in Rain Light Rain
4:50 PM 44.6 °F 39.2 °F 42.8 °F 93% 29.52 in 1.8 mi North 10.4 mph - 0.01 in   Overcast
4:54 PM 45.0 °F 39.3 °F 43.0 °F 93% 29.51 in 2.0 mi North 11.5 mph - 0.01 in   Overcast
5:19 PM 44.6 °F 38.8 °F 42.8 °F 93% 29.53 in 3.0 mi North 11.5 mph - N/A   Overcast
5:51 PM 44.6 °F 37.4 °F 42.8 °F 93% 29.54 in 4.0 mi North 16.1 mph 23.0 mph N/A   Overcast
5:54 PM 44.1 °F 38.6 °F 42.1 °F 93% 29.55 in 4.0 mi North 10.4 mph 21.9 mph N/A   Overcast
6:31 PM 42.8 °F 35.8 °F 42.8 °F 100% 29.54 in 2.5 mi NNE 13.8 mph 18.4 mph 0.01 in   Overcast
6:40 PM 42.8 °F 37.0 °F 41.0 °F 93% 29.55 in 3.0 mi NNE 10.4 mph - 0.01 in   Overcast
6:54 PM 43.0 °F 37.2 °F 41.0 °F 93% 29.55 in 4.0 mi NE 10.4 mph - 0.01 in   Overcast
7:54 PM 42.1 °F 36.1 °F 39.9 °F 92% 29.58 in 10.0 mi NNE 10.4 mph - N/A   Overcast
8:54 PM 42.1 °F 36.6 °F 39.9 °F 92% 29.59 in 9.0 mi NNE 9.2 mph - N/A   Overcast
9:34 PM 42.8 °F 40.1 °F 39.2 °F 87% 29.61 in 10.0 mi NE 4.6 mph - N/A   Overcast
9:51 PM 42.8 °F 41.1 °F 39.2 °F 87% 29.63 in 10.0 mi NNW 3.5 mph - N/A   Overcast
9:54 PM 42.1 °F 38.4 °F 39.9 °F 92% 29.64 in 10.0 mi North 5.8 mph - N/A   Overcast
10:40 PM 41.0 °F 37.1 °F 39.2 °F 93% 29.63 in 3.0 mi NNE 5.8 mph - N/A   Overcast
10:54 PM 41.0 °F 37.1 °F 39.9 °F 96% 29.62 in 3.0 mi ENE 5.8 mph - N/A   Overcast
11:18 PM 41.0 °F 38.0 °F 39.2 °F 93% 29.60 in 9.0 mi ENE 4.6 mph - N/A   Overcast
11:35 PM 41.0 °F 36.4 °F 39.2 °F 93% 29.59 in 10.0 mi ENE 6.9 mph - N/A   Overcast
11:54 PM 41.0 °F 38.0 °F 39.0 °F 93% 29.60 in 10.0 mi ENE 4.6 mph - N/A   Overcast